This is the latest recevied weather packets stored in our database for station/object IW1RID-3. If no packets are shown the sender has not sent any weather packets the latest 10 day(s).
| Time | Temp. | Humidity | Pressure | Rain* | Wind** | Luminosity | Snow |
|---|---|---|---|---|---|---|---|
| 1787944531 | 25.56° C | 79% | 1070.3 hPa | - | - | - | - |
| 1787943326 | 26.67° C | 74% | 1070.3 hPa | - | - | - | - |
| 1787942121 | 27.22° C | 70% | 1070.2 hPa | - | - | - | - |
| 1787940916 | 27.78° C | 69% | 1070.8 hPa | - | - | - | - |
| 1787939711 | 27.78° C | 72% | 1071.1 hPa | - | - | - | - |
| 1787938507 | 27.78° C | 71% | 1071.1 hPa | - | - | - | - |
| 1787937302 | 28.89° C | 65% | 1070.8 hPa | - | - | - | - |
| 1787936097 | 29.44° C | 56% | 1070 hPa | - | - | - | - |
| 1787934892 | 29.44° C | 63% | 1071.6 hPa | - | - | - | - |
| 1787933687 | 29.44° C | 59% | 1071.2 hPa | - | - | - | - |
| 1787932482 | 29.44° C | 58% | 1072.2 hPa | - | - | - | - |
| 1787931277 | 30° C | 62% | 1071.5 hPa | - | - | - | - |
| 1787930073 | 29.44° C | 67% | 1071 hPa | - | - | - | - |
| 1787928868 | 30° C | 71% | 1071.2 hPa | - | - | - | - |
| 1787927663 | 29.44° C | 72% | 1072 hPa | - | - | - | - |
| 1787926458 | 30° C | 66% | 1072.4 hPa | - | - | - | - |
| 1787925254 | 31.67° C | 58% | 1071.9 hPa | - | - | - | - |
| 1787924049 | 31.67° C | 57% | 1071.9 hPa | - | - | - | - |
| 1787922844 | 32.22° C | 70% | 1072.4 hPa | - | - | - | - |
| 1787921639 | 33.33° C | 65% | 1072.5 hPa | - | - | - | - |
| 1787920435 | 31.67° C | 70% | 1072.3 hPa | - | - | - | - |
| 1787919229 | 31.67° C | 59% | 1072.6 hPa | - | - | - | - |
| 1787918024 | 31.11° C | 50% | 1073 hPa | - | - | - | - |
| 1787916819 | 30° C | 53% | 1073 hPa | - | - | - | - |
| 1787915615 | 29.44° C | 55% | 1072.7 hPa | - | - | - | - |
* Rain since midnight (hover to see other rain measurements)
** Current wind speed in m/s (hover to see current wind gust speed)